Location: Les Salelles
(44.4192°N, 4.1044°E)
Time: 12:41:27
(UTC+00:00)

Cosmos 2082 Rocket - Pass Details

Date: 20 January 2021
Orbit: 832 x 854 km, 71.0° (Epoch: 07 March)

Event Time Altitude Azimuth Distance (km) Brightness Sun altitude
Rises 19:33:22 0° 339° (NNW) 3,435 5.6 -31.2°
Reaches altitude 10° 19:36:00 10° 347° (NNW) 2,495 4.8 -31.7°
Enters shadow 19:37:15 16° 353° (N) 2,080 4.3 -31.9°
